Location: Fort Wayne
(41.1310°N, 85.1290°W)
Time: 22:12:11
(UTC-04:00)

Gbstr 26 Del rocket - Visible Passes

Search period start: 27 August 2016 00:00
Search period end: 06 September 2016 00:00
Orbit: 494 x 1266 km, 51.8° (Epoch: 26 August)

Date Brightness Start Highest point End Pass type
(mag) Time Alt. Az. Time Alt. Az. Time Alt. Az.
27 Aug 6.6 06:03:10 10° SSE 06:07:36 17° ESE 06:12:16 10° E visible
28 Aug 6.4 05:57:58 10° SSE 06:03:11 21° ESE 06:08:46 10° ENE visible
29 Aug 6.2 05:53:03 10° S 05:58:48 26° ESE 06:05:04 10° ENE visible
30 Aug 5.8 05:48:17 10° S 05:54:27 31° SE 06:01:14 10° ENE visible
31 Aug 5.5 05:43:41 10° SSW 05:50:07 38° SE 05:57:19 10° ENE visible
01 Sep 5.2 05:39:34 12° SSW 05:45:49 45° SE 05:53:20 10° ENE visible
02 Sep 6.4 03:53:33 10° SE 03:55:43 12° ESE 03:57:59 10° E visible
02 Sep 4.9 05:36:05 17° SSW 05:41:33 54° SE 05:49:18 10° ENE visible
03 Sep 6.2 03:49:55 14° SE 03:51:17 15° ESE 03:55:13 10° E visible
03 Sep 4.6 05:32:31 22° SSW 05:37:19 64° SE 05:45:14 10° ENE visible
04 Sep 5.9 03:46:18 19° SE 03:46:51 19° ESE 03:51:49 10° ENE visible
04 Sep 4.4 05:28:54 27° SW 05:33:07 75° SE 05:41:08 10° NE visible
05 Sep 5.7 03:42:36 24° ESE 03:42:36 24° ESE 03:48:10 10° ENE visible
05 Sep 4.3 05:25:11 31° SW 05:28:58 86° SE 05:37:01 10° NE visible
